Tracking 29892 objects as of 21-Nov-2024
HD Live streaming from Space Station
objects crossing your sky now

OBJECT C

Track OBJECT C now!
10-day predictions


NORAD ID: 59807
Int'l Code: 2024-094C
Perigee: 502.2 km
Apogee: 508.3 km
Inclination: 97.5 °
Period: 94.6 minutes
Semi major axis: 6876 km
RCS: Unknown
Launch date: May 20, 2024
Source: People's Republic of China (PRC)
Launch site: Taiyaun Space Center, China (TSC)
Your satellite tracking list
Your tracking list is empty




NASA's NSSDC Master Catalog

Two Line Element Set (TLE):
1 59807U 24094C   24326.19543014  .00020065  00000-0  86573-3 0  9997
2 59807  97.4571  36.1807 0004411 261.7685  98.3051 15.22557409 28167
Source of the keplerian elements: AFSPC